sat.trackr.live / text

‹ back to catalog

STARLINK-35812

NORAD 66574 · 2025-268T

PAYLOAD ACTIVE UNKNOWN

§ Identity

Operator
Country
US
Launch date
2025-11-21
Launch site
AFETR
Launch vehicle
Mass (kg)
RCS (m²)

Purposes: comms

External: N2YO · Heavens-Above · Gunter

§ Orbital elements

Epoch: 2026-05-24T18:35:51.045504Z

Period
94.27 min
Inclination
42.9998°
Eccentricity
0.0001521
Mean motion
15.27601577 rev/d
Perigee alt
481.9 km
Apogee alt
484.0 km
Semi-major
6,861.1 km
B*
6.6466e-4
RAAN
277.5821°
Arg perigee
266.3787°
Mean anomaly
93.6890°
Rev number
2,959

§ Raw data

STARLINK-358121 66574U 25268T   26144.77489636  .00018085  00000+0  66466-3 0  99902 66574  42.9998 277.5821 0001521 266.3787  93.6890 15.27601577 29592

JSON: /api/v1/satellites/66574 · /tle

For live sub-satellite position, see the globe view (requires WebGL).

§ Visibility from observer

Set your observer location to see the next 7 days of passes ≥ 10°. The values pass through the URL so the page stays shareable.

No JS? Fill the form by hand. The geolocation button needs JavaScript.